sat.trackr.live / text

‹ back to catalog

STARLINK-32415

NORAD 61861 · 2024-202S

PAYLOAD ACTIVE UNKNOWN

§ Identity

Operator
Country
US
Launch date
2024-11-07
Launch site
AFETR
Launch vehicle
Mass (kg)
RCS (m²)

Purposes: comms

External: N2YO · Heavens-Above · Gunter

§ Orbital elements

Epoch: 2026-09-21T13:40:51.543264Z

Period
94.27 min
Inclination
43.0038°
Eccentricity
0.0000528
Mean motion
15.27574699 rev/d
Perigee alt
482.7 km
Apogee alt
483.4 km
Semi-major
6,861.2 km
B*
4.7264e-6
RAAN
211.8757°
Arg perigee
277.9943°
Mean anomaly
82.0849°
Rev number
10,528

§ Raw data

STARLINK-324151 61861U 24202S   26264.57004101 -.00000132  00000+0  47264-5 0  99942 61861  43.0038 211.8757 0000528 277.9943  82.0849 15.27574699105281

JSON: /api/v1/satellites/61861 · /tle

For live sub-satellite position, see the globe view (requires WebGL).

§ Visibility from observer

Set your observer location to see the next 7 days of passes ≥ 10°. The values pass through the URL so the page stays shareable.

No JS? Fill the form by hand. The geolocation button needs JavaScript.